Location: Maccacari
(45.1333°N, 11.1333°E)
Time: 22:46:09
(UTC+00:00)

Spot 2 Rocket - Pass Details

Date: 18 September 2020
Orbit: 758 x 771 km, 98.6° (Epoch: 24 October)

Event Time Altitude Azimuth Distance (km) Brightness Sun altitude
Exits shadow 19:48:07 37° 40° (NE) 1,171 4.3 -25.6°
Drops below altitude 10° 19:51:51 10° 359° (N) 2,298 6.3 -26.2°
Sets 19:54:15 0° 353° (N) 3,228 7.3 -26.5°
